Voltar ao catálogo

THOR ABLESTAR DEB

AtivoPO
NORAD 967·DEBRIS·🇺🇸 United States

Lançado Dec 13, 1964 de Vandenberg Space Force Base

Loading…

Próximas Passagens (próximas 24 horas)

TLE

AtualizadoSource: Space-Track

Época: Sep 14, 2026, 13:03 UTC

1 00967U 64083F   26257.54375294  .00000287  00000-0  32881-3 0  9996
2 00967  89.9535 173.3671 0022181 123.7988   0.2978 13.67484624 68198

Acompanhe THOR ABLESTAR DEB em tempo real com AllMySat

Download on the App Store